When you browse on this site, cookies collect data to enhance your experience and personalize the content and advertising you see.
Visit our Privacy Policy to learn more. By continuing to use the site, you agree to this use of cookies and data.
  • In Portugal
  • List of Countries
  • For 7 days
  • Water Temperature
  • Satellite Maps
  • Weather Map
  • Weather Widgets
  • user-avatar
    Login

    Hourly Weather Slobodka

    Today, 20 May, Monday

    Time Temperature Precipitation Wind Pressure Humidity
    00:00 +14°C° 0 mm 2 mps 748 mmHg 81%
    01:00 +13°C° 0 mm 2 mps 748 mmHg 81%
    02:00 +13°C° 0 mm 2 mps 748 mmHg 83%
    03:00 +13°C° 0 mm 2 mps 748 mmHg 83%
    04:00 +13°C° 0 mm 2 mps 749 mmHg 82%
    05:00 +13°C° 0 mm 2 mps 749 mmHg 82%
    06:00 +15°C° 0 mm 2 mps 749 mmHg 76%
    07:00 +17°C° 0 mm 2 mps 749 mmHg 70%
    08:00 +19°C° 0 mm 2 mps 750 mmHg 64%
    09:00 +20°C° 0 mm 2 mps 750 mmHg 60%
    10:00 +21°C° 0 mm 2 mps 750 mmHg 56%
    11:00 +23°C° 0 mm 1 mps 750 mmHg 52%
    12:00 +23°C° 0 mm 2 mps 750 mmHg 51%
    13:00 +24°C° 0 mm 2 mps 750 mmHg 50%
    14:00 +24°C° 0 mm 2 mps 749 mmHg 49%
    15:00 +24°C° 0 mm 2 mps 749 mmHg 53%
    16:00 +23°C° 0 mm 2 mps 749 mmHg 58%
    17:00 +23°C° 0 mm 2 mps 749 mmHg 62%
    18:00 +20°C° 0 mm 2 mps 749 mmHg 66%
    19:00 +18°C° 0 mm 2 mps 749 mmHg 70%
    20:00 +16°C° 0 mm 2 mps 749 mmHg 74%
    21:00 +16°C° 0 mm 2 mps 749 mmHg 75%
    22:00 +15°C° 0 mm 2 mps 749 mmHg 77%
    23:00 +14°C° 0 mm 2 mps 749 mmHg 78%

    Tomorrow, 21 May, Tuesday

    Time Temperature Precipitation Wind Pressure Humidity
    00:00 +14°C° 0 mm 2 mps 749 mmHg 79%
    01:00 +13°C° 0 mm 2 mps 749 mmHg 80%
    02:00 +13°C° 0 mm 2 mps 750 mmHg 81%
    03:00 +13°C° 0 mm 2 mps 750 mmHg 81%
    04:00 +13°C° 0 mm 2 mps 750 mmHg 81%
    05:00 +13°C° 0 mm 2 mps 750 mmHg 81%
    06:00 +14°C° 0 mm 3 mps 750 mmHg 75%
    07:00 +16°C° 0 mm 3 mps 750 mmHg 70%
    08:00 +18°C° 0 mm 4 mps 749 mmHg 65%
    09:00 +19°C° 0 mm 4 mps 749 mmHg 63%
    10:00 +20°C° 0 mm 5 mps 749 mmHg 61%
    11:00 +21°C° 0 mm 5 mps 749 mmHg 59%
    12:00 +22°C° 0 mm 5 mps 749 mmHg 58%
    13:00 +22°C° 0 mm 5 mps 749 mmHg 57%
    14:00 +22°C° 0 mm 5 mps 748 mmHg 56%
    15:00 +22°C° 0 mm 5 mps 748 mmHg 59%
    16:00 +21°C° 0 mm 4 mps 748 mmHg 63%
    17:00 +21°C° 0 mm 4 mps 747 mmHg 66%
    18:00 +19°C° 0 mm 4 mps 747 mmHg 70%
    19:00 +17°C° 0 mm 3 mps 747 mmHg 74%
    20:00 +14°C° 0 mm 3 mps 747 mmHg 79%
    21:00 +14°C° 0 mm 3 mps 746 mmHg 79%
    22:00 +14°C° 0 mm 3 mps 746 mmHg 79%
    23:00 +13°C° 0 mm 4 mps 746 mmHg 79%

    Day after tomorrow, 22 May, Wednesday

    Time Temperature Precipitation Wind Pressure Humidity
    00:00 +13°C° 0 mm 3 mps 746 mmHg 81%
    01:00 +13°C° 0 mm 3 mps 746 mmHg 82%
    02:00 +13°C° 0 mm 3 mps 746 mmHg 84%
    03:00 +13°C° 0.1 mm 3 mps 745 mmHg 85%
    04:00 +14°C° 0.1 mm 3 mps 745 mmHg 85%
    05:00 +14°C° 0.1 mm 4 mps 745 mmHg 86%
    06:00 +15°C° 0 mm 4 mps 745 mmHg 83%
    07:00 +17°C° 0 mm 5 mps 745 mmHg 80%
    08:00 +19°C° 0 mm 5 mps 745 mmHg 77%
    09:00 +20°C° 0 mm 5 mps 745 mmHg 74%
    10:00 +21°C° 0 mm 5 mps 745 mmHg 72%
    11:00 +22°C° 0 mm 5 mps 744 mmHg 69%
    12:00 +22°C° 0.2 mm 5 mps 744 mmHg 68%
    13:00 +22°C° 0.2 mm 5 mps 744 mmHg 67%
    14:00 +23°C° 0.2 mm 5 mps 744 mmHg 66%
    15:00 +22°C° 0.1 mm 4 mps 743 mmHg 69%
    16:00 +22°C° 0.1 mm 4 mps 743 mmHg 71%
    17:00 +21°C° 0.1 mm 3 mps 743 mmHg 74%
    18:00 +20°C° 0 mm 3 mps 743 mmHg 76%
    19:00 +18°C° 0 mm 3 mps 743 mmHg 79%
    20:00 +17°C° 0 mm 2 mps 743 mmHg 82%
    21:00 +16°C° 0 mm 2 mps 743 mmHg 82%
    22:00 +16°C° 0 mm 2 mps 743 mmHg 82%
    23:00 +15°C° 0 mm 2 mps 743 mmHg 83%

    23 May, Thursday

    Time Temperature Precipitation Wind Pressure Humidity
    00:00 +15°C° 0 mm 2 mps 742 mmHg 84%
    01:00 +15°C° 0 mm 2 mps 742 mmHg 85%
    02:00 +14°C° 0 mm 2 mps 742 mmHg 86%
    03:00 +14°C° 0 mm 2 mps 742 mmHg 87%
    04:00 +14°C° 0 mm 2 mps 742 mmHg 88%
    05:00 +14°C° 0 mm 2 mps 742 mmHg 89%
    06:00 +16°C° 0 mm 2 mps 742 mmHg 84%
    07:00 +18°C° 0 mm 2 mps 742 mmHg 79%
    08:00 +20°C° 0 mm 2 mps 742 mmHg 74%
    09:00 +21°C° 0.4 mm 2 mps 742 mmHg 71%
    10:00 +23°C° 0.4 mm 2 mps 742 mmHg 68%
    11:00 +24°C° 0.4 mm 2 mps 741 mmHg 65%
    12:00 +24°C° 0.2 mm 2 mps 741 mmHg 64%
    13:00 +25°C° 0.2 mm 2 mps 741 mmHg 63%
    14:00 +25°C° 0.2 mm 3 mps 741 mmHg 61%
    15:00 +25°C° 0.4 mm 2 mps 741 mmHg 64%
    16:00 +24°C° 0.4 mm 2 mps 740 mmHg 67%
    17:00 +24°C° 0.4 mm 2 mps 740 mmHg 70%
    18:00 +21°C° 1.8 mm 2 mps 740 mmHg 76%
    19:00 +20°C° 1.8 mm 2 mps 740 mmHg 81%
    20:00 +18°C° 1.8 mm 2 mps 740 mmHg 87%
    21:00 +17°C° 0.8 mm 2 mps 740 mmHg 88%
    22:00 +17°C° 0.8 mm 2 mps 740 mmHg 89%
    23:00 +17°C° 0.8 mm 2 mps 740 mmHg 90%

    24 May, Friday

    Time Temperature Precipitation Wind Pressure Humidity
    00:00 +16°C° 0 mm 2 mps 740 mmHg 90%
    01:00 +16°C° 0 mm 2 mps 740 mmHg 91%
    02:00 +15°C° 0 mm 2 mps 740 mmHg 91%
    03:00 +16°C° 0 mm 2 mps 740 mmHg 91%
    04:00 +16°C° 0 mm 2 mps 740 mmHg 91%
    05:00 +16°C° 0 mm 2 mps 740 mmHg 91%
    06:00 +17°C° 0 mm 2 mps 740 mmHg 87%
    07:00 +19°C° 0 mm 2 mps 740 mmHg 82%
    08:00 +21°C° 0 mm 2 mps 740 mmHg 77%
    09:00 +23°C° 0.2 mm 2 mps 740 mmHg 72%
    10:00 +24°C° 0.2 mm 3 mps 740 mmHg 67%
    11:00 +25°C° 0.2 mm 3 mps 740 mmHg 62%
    12:00 +25°C° 1.8 mm 3 mps 740 mmHg 63%
    13:00 +24°C° 1.8 mm 2 mps 739 mmHg 64%
    14:00 +24°C° 1.8 mm 2 mps 739 mmHg 65%
    15:00 +24°C° 0.7 mm 2 mps 739 mmHg 67%
    16:00 +24°C° 0.7 mm 1 mps 739 mmHg 70%
    17:00 +24°C° 0.7 mm 1 mps 739 mmHg 73%
    18:00 +21°C° 0.1 mm 2 mps 738 mmHg 76%
    19:00 +19°C° 0.1 mm 2 mps 738 mmHg 80%
    20:00 +18°C° 0.1 mm 2 mps 738 mmHg 83%
    21:00 +17°C° 0 mm 2 mps 738 mmHg 85%
    22:00 +17°C° 0 mm 2 mps 738 mmHg 87%
    23:00 +16°C° 0 mm 2 mps 738 mmHg 89%

    25 May, Saturday

    Time Temperature Precipitation Wind Pressure Humidity
    00:00 +16°C° 0 mm 2 mps 738 mmHg 90%
    01:00 +15°C° 0 mm 2 mps 738 mmHg 91%
    02:00 +15°C° 0 mm 2 mps 738 mmHg 92%
    03:00 +15°C° 0 mm 2 mps 738 mmHg 92%
    04:00 +15°C° 0 mm 2 mps 738 mmHg 92%
    05:00 +16°C° 0 mm 2 mps 738 mmHg 93%
    06:00 +17°C° 0 mm 2 mps 738 mmHg 89%
    07:00 +19°C° 0 mm 3 mps 738 mmHg 85%
    08:00 +20°C° 0 mm 3 mps 738 mmHg 81%
    09:00 +21°C° 0.4 mm 3 mps 738 mmHg 77%
    10:00 +22°C° 0.4 mm 4 mps 737 mmHg 72%
    11:00 +23°C° 0.4 mm 4 mps 737 mmHg 68%
    12:00 +23°C° 0.1 mm 4 mps 737 mmHg 65%
    13:00 +25°C° 0.1 mm 3 mps 737 mmHg 63%
    14:00 +25°C° 0.1 mm 3 mps 737 mmHg 60%
    15:00 +24°C° 0.9 mm 3 mps 737 mmHg 67%
    16:00 +22°C° 0.9 mm 3 mps 736 mmHg 73%
    17:00 +21°C° 0.9 mm 3 mps 736 mmHg 80%
    18:00 +20°C° 0.1 mm 3 mps 736 mmHg 83%
    19:00 +19°C° 0.1 mm 2 mps 736 mmHg 86%
    20:00 +17°C° 0.1 mm 2 mps 736 mmHg 89%
    21:00 +17°C° 0 mm 2 mps 736 mmHg 90%
    22:00 +16°C° 0 mm 1 mps 736 mmHg 91%
    23:00 +16°C° 0 mm 1 mps 736 mmHg 92%
    Show more